Location: Alulod
(14.2076°N, 120.8898°E)
Time: 14:13:34
(UTC+00:00)

USA 238 DEB - Pass Details

Date: 18 March 2026
Orbit: 883 x 1328 km, 63.4° (Epoch: 10 January)

Event Time Altitude Azimuth Distance (km) Brightness Sun altitude
Rises 21:15:05 0° 328° (NNW) 4,200 6.5 -12.1°
Reaches altitude 10° 21:17:52 10° 324° (NW) 3,274 5.9 -11.4°
Maximum altitude 21:25:44 58° 248° (WSW) 1,511 4.2 -9.5°
Drops below altitude 10° 21:33:46 10° 171° (S) 3,340 6.4 -7.6°
Sets 21:36:39 0° 167° (SSE) 4,290 7.0 -6.9°
